Voltar ao catálogo

COSMOS 2251 DEB

AtivoLEO
NORAD 33785·DEBRIS·🇷🇺 Russia

Lançado Jun 16, 1993 de Plesetsk Cosmodrome

Loading…

Próximas Passagens (próximas 24 horas)

TLE

AtualizadoSource: Space-Track

Época: Sep 14, 2026, 01:53 UTC

1 33785U 93036AA  26257.07904106  .00002911  00000-0  43303-3 0  9995
2 33785  73.8626 237.5727 0015044 128.5436 302.9681 14.75382485925626

Acompanhe COSMOS 2251 DEB em tempo real com AllMySat

Download on the App Store